Home   Weather   Almaty   Past weeks

Flag for Kazakhstan Past Weather in Almaty, Kazakhstan — Yesterday and Last 2 Weeks

Now
59 °F

Mostly cloudy.


Feels Like: 60 °F
Forecast: 55 / 76 °F
Wind: 3 mph from Southwest

Location: Almaty Airport

Current Time: Sep 29, 2016 at 2:24:11 AM

Latest Report: Sep 29, 2016 at 2:00 AM


Visibility: N/A

Pressure: 30.04 "Hg (27.35 "Hg at 790m altitude)

Humidity: 82%

Dew Point: 54 °F

Location of AlmatyLocation

Past Weather in Almaty — Graph

°F

Almaty Temperature Yesterday

Maximum temperature yesterday: 84 °F (at 1:00 PM)
Minimum temperature yesterday: 52 °F (at 3:00 AM)
Average temperature yesterday: 66 °F

High & Low Weather Summary for the Past Weeks

 TemperatureHumidityPressure
High88 °F (Sep 17, 1:00 PM)94% (Sep 14, 1:00 AM)30.18 "Hg (Sep 14, 1:00 AM)
Low46 °F (Sep 14, 6:30 AM)17% (Sep 17, 1:00 PM)29.83 "Hg (Sep 28, 5:00 PM)
Average65 °F53%29.97 "Hg
* Reported Sep 14 1:00 AM — Sep 29 1:00 AM, Almaty, Weather by CustomWeather, © 2016

Note: Actual official high and low records may vary slightly from our data, if they occured in-between our weather recording intervals... More about our weather records

Advertising

Almaty Weather History for the Previous 24 Hours

Scroll right to see more
 ConditionsComfort  
Time TempWeatherWind HumidityBarometerVisibility
1:00 AM
Thu, Sep 29
59 °FMostly cloudy.1 mph82%30.04 "HgN/A
12:30 AM59 °FMostly cloudy.8 mph82%30.07 "HgN/A
12:00 AM59 °FMostly cloudy.8 mph88%30.07 "HgN/A
11:30 PM
Wed, Sep 28
59 °FSprinkles. Mostly cloudy.3 mph82%30.07 "HgN/A
11:00 PM59 °FSprinkles. Mostly cloudy.6 mph88%30.07 "HgN/A
10:30 PM59 °FSprinkles. Mostly cloudy.1 mph88%30.09 "HgN/A
10:00 PM59 °FSprinkles. Fog.6 mph88%30.07 "Hg3 mi
9:30 PM59 °FSprinkles. Fog.6 mph94%30.09 "Hg3 mi
9:00 PM59 °FSprinkles. Fog.6 mph88%30.12 "Hg3 mi
8:30 PM59 °FSprinkles. Fog.8 mph88%30.12 "Hg2 mi
8:00 PM59 °FSprinkles. Fog.8 mph88%30.09 "Hg3 mi
7:30 PM61 °FThundershowers. Fog.13 mph83%30.09 "Hg3 mi
7:00 PM66 °FThunderstorms. Mostly cloudy.20 mph64%30.04 "HgN/A
6:30 PM68 °FMostly cloudy.13 mph49%29.92 "HgN/A
6:00 PM68 °FPartly sunny.20 mph56%29.89 "Hg3 mi
5:30 PM79 °FBroken clouds.8 mph30%29.83 "HgN/A
5:00 PM81 °FScattered clouds.6 mph28%29.83 "HgN/A
4:30 PM81 °FScattered clouds.6 mph28%29.86 "HgN/A
4:00 PM82 °FBroken clouds.8 mph26%29.86 "HgN/A
3:30 PM81 °FBroken clouds.13 mph28%29.86 "HgN/A
3:00 PM81 °FBroken clouds.13 mph28%29.86 "HgN/A
2:30 PM77 °FBroken clouds.15 mph34%29.89 "HgN/A
2:00 PM82 °FScattered clouds.3 mph26%29.86 "HgN/A
1:30 PM84 °FPartly sunny.3 mph20%29.89 "HgN/A
1:00 PM84 °FPartly sunny.3 mph19%29.89 "HgN/A
12:30 PM81 °FBroken clouds.3 mph24%29.92 "HgN/A
12:00 PM79 °FBroken clouds.3 mph30%29.92 "HgN/A
11:30 AM75 °FBroken clouds.3 mph36%29.95 "HgN/A
11:00 AM75 °FBroken clouds.6 mph34%29.95 "HgN/A
10:30 AM73 °FBroken clouds.10 mph36%29.95 "HgN/A
10:00 AM70 °FMostly cloudy.10 mph40%29.95 "HgN/A
9:30 AM64 °FSprinkles. Mostly cloudy.17 mph60%29.98 "HgN/A
9:00 AM64 °FSprinkles. Mostly cloudy.10 mph60%30.04 "HgN/A
8:30 AM64 °FSprinkles. Mostly cloudy.13 mph64%30.01 "HgN/A
8:00 AM64 °FSprinkles. Mostly cloudy.15 mph64%30.01 "HgN/A
7:30 AM61 °FMostly cloudy.6 mph63%29.98 "HgN/A
7:00 AM59 °FSprinkles. Mostly cloudy.10 mph63%29.98 "HgN/A
6:00 AM59 °FMostly cloudy.3 mph68%29.92 "HgN/A
5:30 AM57 °FPartly cloudy.3 mph72%29.89 "HgN/A
5:00 AM57 °FPartly cloudy.3 mph72%29.92 "HgN/A
4:30 AM54 °FPassing clouds.1 mph77%29.92 "HgN/A
4:00 AM54 °FPassing clouds.1 mph77%29.89 "HgN/A
3:30 AM54 °FPassing clouds.1 mph77%29.89 "HgN/A
3:00 AM52 °FPassing clouds.1 mph82%29.89 "HgN/A
2:30 AM54 °FPassing clouds.1 mph77%29.92 "HgN/A
2:00 AM54 °FPassing clouds.3 mph77%29.92 "HgN/A
Weather by CustomWeather, © 2016

See weather overviewHow to use our weather pages